Weather History for KMSN - September, 2013

Change the Weather History Date:

Tuesday, September 17, 2013

  Actual Average Record
Temperature  
Mean Temperature 56 °F 60 °F  
Max Temperature 71 °F 71 °F 90 °F (1955)
Min Temperature 40 °F 50 °F 36 °F (1980)
Degree Days  
Heating Degree Days 9 6  
Month to date heating degree days 53 63  
Since 1 July heating degree days 83 100  
Cooling Degree Days 0 1  
Month to date cooling degree days 77 41  
Year to date cooling degree days 690 554  
Growing Degree Days 5 (Base 50)    
Moisture  
Dew Point 48 °F    
Average Humidity 76    
Maximum Humidity 100    
Minimum Humidity 51    
Precipitation  
Precipitation 0.06 in 0.11 in 2.64 in (1907)
Month to date precipitation 1.02 1.85  
Year to date precipitation 37.50 26.67  
Snow  
Snow 0.00 in 0.00 in 0.00 in ()
Month to date snowfall 0.0 0.0  
Since 1 July snowfall 0.0 0.0  
Since 1 September snowfall 0.0 0.0  
Snow Depth 0.00 in    
Sea Level Pressure  
Sea Level Pressure 30.25 in    
Wind  
Wind Speed 7 mph (SSE)    
Max Wind Speed 18 mph    
Max Gust Speed 22 mph    
Visibility 9 miles    
Events Rain    
T = Trace of Precipitation, MM = Missing Value Source: NWS Daily Summary

Daily Weather History Graph

Daily Weather History Graph

Search for Another Location

Airport or City:

Trip Planner

Search our weather history database for the weather conditions in past years. The results will help you decide how hot, cold, wet, or windy it might be!

Date:

Astronomy

Sep. 17, 2013 Rise Set
Actual Time 6:39 AM CDT 7:03 PM CDT
Civil Twilight 6:10 AM CDT 7:31 PM CDT
Nautical Twilight 5:37 AM CDT 8:05 PM CDT
Astronomical Twilight 5:02 AM CDT 8:39 PM CDT
Moon 5:51 PM CDT (9/17) 4:31 AM CDT (9/17)
Length of Visible Light 13h 20m
Length of Day
12h 23m
Waxing Gibbous, 96% of the Moon is Illuminated
Sep 17
Waxing Gibbous
Sep 19
Full
Sep 26
Last Quarter
Oct 4
New
Oct 11
First Quarter

Hourly Weather History & Observations

Time (CDT) Temp. Windchill Dew Point Humidity Pressure Visibility Wind Dir Wind Speed Gust Speed Precip Events Conditions
12:53 AM 45.0 °F - 43.0 °F 93% 30.36 in 10.0 mi Calm Calm - N/A   Clear
1:53 AM 42.1 °F - 41.0 °F 96% 30.36 in 8.0 mi Calm Calm - N/A   Clear
2:53 AM 41.0 °F - 39.9 °F 96% 30.35 in 6.0 mi Calm Calm - N/A   Clear
3:53 AM 39.9 °F 37.8 °F 39.0 °F 97% 30.34 in 6.0 mi NNW 3.5 mph - N/A   Clear
4:35 AM 41.0 °F - 39.2 °F 93% 30.33 in 9.0 mi Calm Calm - N/A   Mostly Cloudy
4:53 AM 42.1 °F - 41.0 °F 96% 30.34 in 9.0 mi Calm Calm - N/A   Overcast
5:44 AM 42.8 °F - 41.0 °F 93% 30.32 in 8.0 mi Calm Calm - N/A   Scattered Clouds
5:53 AM 41.0 °F - 39.9 °F 96% 30.33 in 7.0 mi Calm Calm - N/A   Partly Cloudy
6:53 AM 42.1 °F - 41.0 °F 96% 30.33 in 9.0 mi Calm Calm - N/A   Clear
7:53 AM 48.0 °F - 46.0 °F 93% 30.33 in 10.0 mi Calm Calm - N/A   Clear
8:53 AM 53.1 °F - 48.0 °F 83% 30.33 in 10.0 mi SSE 10.4 mph - N/A   Clear
9:53 AM 57.0 °F - 48.9 °F 74% 30.32 in 10.0 mi SSE 9.2 mph - N/A   Clear
10:53 AM 62.1 °F - 51.1 °F 67% 30.30 in 10.0 mi SSE 9.2 mph - N/A   Scattered Clouds
11:53 AM 63.0 °F - 50.0 °F 63% 30.29 in 10.0 mi South 9.2 mph - N/A   Scattered Clouds
12:53 PM 64.9 °F - 50.0 °F 58% 30.26 in 10.0 mi SSE 13.8 mph - N/A   Partly Cloudy
1:53 PM 69.1 °F - 50.0 °F 51% 30.22 in 10.0 mi SSE 10.4 mph 17.3 mph N/A   Partly Cloudy
2:53 PM 70.0 °F - 51.1 °F 51% 30.20 in 10.0 mi South 12.7 mph - N/A   Partly Cloudy
3:53 PM 68.0 °F - 51.1 °F 55% 30.18 in 10.0 mi SSE 12.7 mph - N/A   Partly Cloudy
4:53 PM 68.0 °F - 51.1 °F 55% 30.16 in 10.0 mi South 11.5 mph - N/A   Partly Cloudy
5:53 PM 66.9 °F - 52.0 °F 59% 30.15 in 10.0 mi South 10.4 mph - N/A   Partly Cloudy
6:53 PM 66.0 °F - 52.0 °F 60% 30.14 in 10.0 mi South 8.1 mph - N/A   Partly Cloudy
7:53 PM 64.9 °F - 53.1 °F 65% 30.13 in 10.0 mi South 8.1 mph - 0.00 in   Mostly Cloudy
8:53 PM 63.0 °F - 55.0 °F 75% 30.13 in 10.0 mi SSE 9.2 mph - 0.00 in Rain Light Rain
9:53 PM 60.1 °F - 55.9 °F 86% 30.12 in 10.0 mi SE 6.9 mph - 0.06 in   Overcast
10:53 PM 60.1 °F - 55.9 °F 86% 30.10 in 10.0 mi SSE 9.2 mph - N/A   Overcast
11:53 PM 60.1 °F - 55.9 °F 86% 30.09 in 9.0 mi SSE 8.1 mph - N/A   Overcast